Time,TemperatureF,DewpointF,PressureIn,WindDirection,WindDirectionDegrees,WindSpeedMPH,WindSpeedGustMPH,Humidity,HourlyPrecipIn,Conditions,Clouds,dailyrainin,SoftwareType,DateUTC
2013-08-27 00:03:00,69.4,67.0,27.31,NNE,22,0.0,0.0,95,0.00,,,0.00,Rainwise IP-100,2013-08-27 07:03:00,
2013-08-27 00:08:00,69.4,67.0,27.31,NNE,22,0.0,0.0,95,0.00,,,0.00,Rainwise IP-100,2013-08-27 07:08:00,
2013-08-27 00:13:00,69.4,67.0,27.31,NNE,22,0.0,0.0,95,0.00,,,0.00,Rainwise IP-100,2013-08-27 07:13:00,
2013-08-27 00:18:00,69.1,67.0,27.31,NNE,22,0.0,0.0,96,0.00,,,0.00,Rainwise IP-100,2013-08-27 07:18:00,
2013-08-27 00:23:00,69.1,67.0,27.31,NNE,22,0.0,0.0,96,0.00,,,0.00,Rainwise IP-100,2013-08-27 07:23:00,
2013-08-27 00:33:00,68.8,67.0,27.30,NNE,22,0.0,0.0,96,0.00,,,0.00,Rainwise IP-100,2013-08-27 07:33:00,
2013-08-27 00:38:00,68.6,67.0,27.31,NNE,22,0.0,0.0,96,0.00,,,0.00,Rainwise IP-100,2013-08-27 07:38:00,
2013-08-27 00:43:00,68.5,67.0,27.30,NNE,22,0.0,0.0,96,0.00,,,0.00,Rainwise IP-100,2013-08-27 07:43:00,
2013-08-27 00:48:00,68.5,67.0,27.30,NNE,22,0.0,0.0,96,0.00,,,0.00,Rainwise IP-100,2013-08-27 07:48:00,
2013-08-27 00:53:00,68.4,67.0,27.30,NNE,22,0.0,0.0,96,0.00,,,0.00,Rainwise IP-100,2013-08-27 07:53:00,
2013-08-27 00:58:00,68.4,67.0,27.29,NNE,22,0.0,0.0,97,0.00,,,0.00,Rainwise IP-100,2013-08-27 07:58:00,
2013-08-27 01:03:00,68.4,67.0,27.30,NNE,22,0.0,0.0,97,0.00,,,0.00,Rainwise IP-100,2013-08-27 08:03:00,
2013-08-27 01:08:00,68.4,67.0,27.30,NNE,22,0.0,0.0,97,0.00,,,0.00,Rainwise IP-100,2013-08-27 08:08:00,
2013-08-27 01:13:00,68.2,67.0,27.30,NNE,22,0.0,0.0,97,0.00,,,0.00,Rainwise IP-100,2013-08-27 08:13:00,
2013-08-27 01:18:00,68.1,67.0,27.30,NNE,22,0.0,0.0,97,0.00,,,0.00,Rainwise IP-100,2013-08-27 08:18:00,
2013-08-27 01:23:00,68.0,67.0,27.30,NNE,22,0.0,1.0,97,0.00,,,0.00,Rainwise IP-100,2013-08-27 08:23:00,
2013-08-27 01:28:00,67.9,67.0,27.30,NNE,22,0.0,0.0,97,0.00,,,0.00,Rainwise IP-100,2013-08-27 08:28:00,
2013-08-27 01:33:00,67.8,66.0,27.30,NNE,22,0.0,0.0,97,0.00,,,0.00,Rainwise IP-100,2013-08-27 08:33:00,
2013-08-27 01:38:00,67.6,66.0,27.29,NNE,22,0.0,0.0,97,0.00,,,0.00,Rainwise IP-100,2013-08-27 08:38:00,
2013-08-27 01:43:00,67.5,66.0,27.29,NNE,22,0.0,0.0,97,0.00,,,0.00,Rainwise IP-100,2013-08-27 08:43:00,
2013-08-27 01:48:00,67.5,66.0,27.29,NNE,22,0.0,0.0,97,0.00,,,0.00,Rainwise IP-100,2013-08-27 08:48:00,
2013-08-27 01:53:00,67.5,66.0,27.29,NNE,22,0.0,0.0,97,0.00,,,0.00,Rainwise IP-100,2013-08-27 08:53:00,
2013-08-27 01:58:00,67.6,67.0,27.29,NNE,22,0.0,0.0,98,0.00,,,0.00,Rainwise IP-100,2013-08-27 08:58:00,
2013-08-27 02:03:00,67.5,67.0,27.29,NNE,22,0.0,0.0,98,0.00,,,0.00,Rainwise IP-100,2013-08-27 09:03:00,
2013-08-27 02:08:00,67.4,67.0,27.29,NNE,22,0.0,0.0,98,0.00,,,0.00,Rainwise IP-100,2013-08-27 09:08:00,
2013-08-27 02:13:00,67.4,67.0,27.28,NNE,22,0.0,0.0,98,0.00,,,0.00,Rainwise IP-100,2013-08-27 09:13:00,
2013-08-27 02:18:00,67.4,67.0,27.28,NNE,22,0.0,0.0,98,0.00,,,0.00,Rainwise IP-100,2013-08-27 09:18:00,
2013-08-27 02:23:00,67.1,66.0,27.29,NNE,22,0.0,0.0,98,0.00,,,0.00,Rainwise IP-100,2013-08-27 09:23:00,
2013-08-27 02:28:00,67.1,66.0,27.29,NNE,22,0.0,0.0,98,0.00,,,0.00,Rainwise IP-100,2013-08-27 09:28:00,
2013-08-27 02:33:00,66.7,66.0,27.28,NNE,22,0.0,0.0,98,0.00,,,0.00,Rainwise IP-100,2013-08-27 09:33:00,
2013-08-27 02:38:00,66.8,66.0,27.28,NNE,22,0.0,0.0,98,0.00,,,0.00,Rainwise IP-100,2013-08-27 09:38:00,
2013-08-27 02:43:00,66.7,66.0,27.28,NNE,22,0.0,0.0,98,0.00,,,0.00,Rainwise IP-100,2013-08-27 09:43:00,
2013-08-27 02:48:00,66.6,66.0,27.28,NNE,22,0.0,0.0,98,0.00,,,0.00,Rainwise IP-100,2013-08-27 09:48:00,
2013-08-27 02:53:00,66.5,66.0,27.28,NNE,22,0.0,0.0,98,0.00,,,0.00,Rainwise IP-100,2013-08-27 09:53:00,
2013-08-27 02:58:00,66.6,66.0,27.28,NNE,22,0.0,0.0,98,0.00,,,0.00,Rainwise IP-100,2013-08-27 09:58:00,
2013-08-27 03:03:00,66.8,66.0,27.28,NNE,22,0.0,0.0,98,0.00,,,0.00,Rainwise IP-100,2013-08-27 10:03:00,
2013-08-27 03:08:00,66.7,66.0,27.28,NNE,22,0.0,0.0,99,0.00,,,0.00,Rainwise IP-100,2013-08-27 10:08:00,
2013-08-27 03:13:00,66.5,66.0,27.28,NNE,22,0.0,0.0,99,0.00,,,0.00,Rainwise IP-100,2013-08-27 10:13:00,
2013-08-27 03:18:00,66.4,66.0,27.28,NNE,22,0.0,0.0,98,0.00,,,0.00,Rainwise IP-100,2013-08-27 10:18:00,
2013-08-27 03:23:00,66.2,66.0,27.28,NNE,22,0.0,0.0,98,0.00,,,0.00,Rainwise IP-100,2013-08-27 10:23:00,
2013-08-27 03:28:00,66.0,65.0,27.28,NNE,22,0.0,0.0,98,0.00,,,0.00,Rainwise IP-100,2013-08-27 10:28:00,
2013-08-27 03:33:00,65.8,65.0,27.28,NNE,22,0.0,0.0,98,0.00,,,0.00,Rainwise IP-100,2013-08-27 10:33:00,
2013-08-27 03:38:00,65.7,65.0,27.28,NNE,22,0.0,0.0,98,0.00,,,0.00,Rainwise IP-100,2013-08-27 10:38:00,
2013-08-27 03:43:00,65.6,65.0,27.28,NNE,22,0.0,0.0,98,0.00,,,0.00,Rainwise IP-100,2013-08-27 10:43:00,
2013-08-27 03:48:00,65.7,65.0,27.28,NNE,22,0.0,0.0,99,0.00,,,0.00,Rainwise IP-100,2013-08-27 10:48:00,
2013-08-27 03:53:00,65.8,65.0,27.27,NNE,22,0.0,1.0,99,0.00,,,0.00,Rainwise IP-100,2013-08-27 10:53:00,
2013-08-27 03:58:00,65.8,65.0,27.27,NNE,22,1.2,1.2,99,0.00,,,0.00,Rainwise IP-100,2013-08-27 10:58:00,
2013-08-27 04:03:00,65.7,65.0,27.27,NNE,22,0.0,1.0,99,0.00,,,0.00,Rainwise IP-100,2013-08-27 11:03:00,
2013-08-27 04:08:00,65.8,65.0,27.27,NNE,22,0.0,0.0,99,0.00,,,0.00,Rainwise IP-100,2013-08-27 11:08:00,
2013-08-27 04:13:00,65.8,65.0,27.27,NNE,22,0.0,0.0,99,0.00,,,0.00,Rainwise IP-100,2013-08-27 11:13:00,
2013-08-27 04:18:00,65.8,65.0,27.27,NNE,22,0.0,0.0,99,0.00,,,0.00,Rainwise IP-100,2013-08-27 11:18:00,
2013-08-27 04:31:00,65.3,64.0,27.27,NNE,22,0.0,0.0,99,0.00,,,0.00,Rainwise IP-100,2013-08-27 11:31:00,
2013-08-27 04:36:00,65.3,64.0,27.28,NNE,22,0.0,0.0,99,0.00,,,0.00,Rainwise IP-100,2013-08-27 11:36:00,
2013-08-27 04:41:00,65.4,65.0,27.27,NNE,22,0.0,0.0,99,0.00,,,0.00,Rainwise IP-100,2013-08-27 11:41:00,
2013-08-27 04:46:00,65.6,65.0,27.28,NNE,22,0.0,1.0,99,0.00,,,0.00,Rainwise IP-100,2013-08-27 11:46:00,
2013-08-27 04:51:00,65.4,65.0,27.28,NNE,22,0.0,0.0,99,0.00,,,0.00,Rainwise IP-100,2013-08-27 11:51:00,
2013-08-27 04:56:00,65.4,65.0,27.28,NNE,22,0.0,0.0,99,0.00,,,0.00,Rainwise IP-100,2013-08-27 11:56:00,
2013-08-27 05:01:00,65.5,65.0,27.27,NNE,22,0.0,0.0,99,0.00,,,0.00,Rainwise IP-100,2013-08-27 12:01:00,
2013-08-27 05:06:00,65.6,65.0,27.28,NNE,22,0.0,0.0,99,0.00,,,0.00,Rainwise IP-100,2013-08-27 12:06:00,
2013-08-27 05:11:00,65.5,65.0,27.27,NNE,22,1.4,1.4,100,0.00,,,0.00,Rainwise IP-100,2013-08-27 12:11:00,
2013-08-27 05:16:00,65.5,65.0,27.27,NNE,22,0.0,2.0,99,0.00,,,0.00,Rainwise IP-100,2013-08-27 12:16:00,
2013-08-27 05:21:00,65.3,64.0,27.28,NNE,22,0.0,1.0,99,0.00,,,0.00,Rainwise IP-100,2013-08-27 12:21:00,
2013-08-27 05:26:00,65.3,64.0,27.27,NNE,22,0.0,0.0,99,0.00,,,0.00,Rainwise IP-100,2013-08-27 12:26:00,
2013-08-27 05:31:00,65.2,64.0,27.27,NNE,22,0.0,0.0,99,0.00,,,0.00,Rainwise IP-100,2013-08-27 12:31:00,
2013-08-27 05:36:00,65.1,65.0,27.27,NNE,22,0.0,0.0,100,0.00,,,0.00,Rainwise IP-100,2013-08-27 12:36:00,
2013-08-27 05:41:00,65.1,64.0,27.27,NNE,22,0.0,1.0,99,0.00,,,0.00,Rainwise IP-100,2013-08-27 12:41:00,
2013-08-27 05:46:00,65.1,64.0,27.28,East,90,1.9,2.0,99,0.00,,,0.00,Rainwise IP-100,2013-08-27 12:46:00,
2013-08-27 05:51:00,65.3,65.0,27.27,East,90,0.0,2.0,100,0.00,,,0.00,Rainwise IP-100,2013-08-27 12:51:00,
2013-08-27 05:56:00,65.5,65.0,27.28,East,90,0.0,0.0,100,0.00,,,0.00,Rainwise IP-100,2013-08-27 12:56:00,
2013-08-27 06:01:00,65.4,65.0,27.28,East,90,0.0,0.0,100,0.00,,,0.00,Rainwise IP-100,2013-08-27 13:01:00,
2013-08-27 06:06:00,65.3,65.0,27.28,SE,135,0.0,2.0,100,0.00,,,0.00,Rainwise IP-100,2013-08-27 13:06:00,
2013-08-27 06:11:00,65.3,65.0,27.28,SE,135,0.0,2.0,100,0.00,,,0.00,Rainwise IP-100,2013-08-27 13:11:00,
2013-08-27 06:16:00,65.3,65.0,27.28,WSW,247,0.0,0.0,100,0.00,,,0.00,Rainwise IP-100,2013-08-27 13:16:00,
2013-08-27 06:21:00,65.3,65.0,27.28,WSW,247,0.0,0.0,100,0.00,,,0.00,Rainwise IP-100,2013-08-27 13:21:00,
2013-08-27 06:26:00,65.3,65.0,27.28,SSW,202,0.0,2.0,100,0.00,,,0.00,Rainwise IP-100,2013-08-27 13:26:00,
2013-08-27 06:31:00,65.5,65.0,27.29,North,360,0.0,0.0,100,0.00,,,0.00,Rainwise IP-100,2013-08-27 13:31:00,
2013-08-27 06:36:00,65.6,65.0,27.28,North,360,1.9,1.9,100,0.00,,,0.00,Rainwise IP-100,2013-08-27 13:36:00,
2013-08-27 06:41:00,65.9,66.0,27.28,SSE,157,0.0,1.0,100,0.00,,,0.00,Rainwise IP-100,2013-08-27 13:41:00,
2013-08-27 06:46:00,65.9,66.0,27.28,SSE,157,0.0,0.0,100,0.00,,,0.00,Rainwise IP-100,2013-08-27 13:46:00,
2013-08-27 07:19:00,71.0,69.0,27.28,NNW,337,6.1,0.0,95,0.00,,,0.00,Rainwise IP-100,2013-08-27 14:19:00,
2013-08-27 07:24:00,73.1,69.0,27.28,East,90,0.0,9.0,88,0.00,,,0.00,Rainwise IP-100,2013-08-27 14:24:00,
2013-08-27 07:29:00,76.4,67.0,27.29,ENE,67,8.6,8.6,73,0.00,,,0.00,Rainwise IP-100,2013-08-27 14:29:00,
2013-08-27 07:34:00,79.3,65.0,27.28,ESE,112,1.9,8.0,61,0.00,,,0.00,Rainwise IP-100,2013-08-27 14:34:00,
2013-08-27 07:39:00,81.3,63.0,27.28,ENE,67,4.7,7.0,55,0.00,,,0.00,Rainwise IP-100,2013-08-27 14:39:00,
2013-08-27 07:44:00,81.6,63.0,27.28,NE,45,2.6,7.0,54,0.00,,,0.00,Rainwise IP-100,2013-08-27 14:44:00,
2013-08-27 07:49:00,82.4,63.0,27.28,ENE,67,1.6,5.0,52,0.00,,,0.00,Rainwise IP-100,2013-08-27 14:49:00,
2013-08-27 07:54:00,83.6,62.0,27.28,ESE,112,0.0,6.0,48,0.00,,,0.00,Rainwise IP-100,2013-08-27 14:54:00,
2013-08-27 07:59:00,84.4,61.0,27.28,West,270,1.6,5.0,46,0.00,,,0.00,Rainwise IP-100,2013-08-27 14:59:00,
2013-08-27 08:04:00,85.0,61.0,27.28,NNW,337,0.0,5.0,45,0.00,,,0.00,Rainwise IP-100,2013-08-27 15:04:00,
2013-08-27 08:09:00,85.6,60.0,27.28,ENE,67,3.5,4.0,43,0.06,,,0.01,Rainwise IP-100,2013-08-27 15:09:00,
2013-08-27 08:14:00,86.1,60.0,27.28,SSE,157,4.2,4.2,42,0.06,,,0.01,Rainwise IP-100,2013-08-27 15:14:00,
2013-08-27 08:19:00,86.5,60.0,27.28,NNE,22,1.4,6.0,41,0.00,,,0.01,Rainwise IP-100,2013-08-27 15:19:00,
2013-08-27 08:24:00,87.1,60.0,27.28,East,90,2.1,10.0,40,0.00,,,0.01,Rainwise IP-100,2013-08-27 15:24:00,
2013-08-27 08:29:00,87.4,59.0,27.28,East,90,1.9,7.0,39,0.00,,,0.01,Rainwise IP-100,2013-08-27 15:29:00,
2013-08-27 08:34:00,87.7,60.0,27.28,NNE,22,3.7,6.0,39,0.00,,,0.01,Rainwise IP-100,2013-08-27 15:34:00,
2013-08-27 08:39:00,88.0,60.0,27.28,North,360,4.9,7.0,39,0.00,,,0.01,Rainwise IP-100,2013-08-27 15:39:00,
2013-08-27 08:44:00,88.4,60.0,27.28,NNE,22,2.8,8.0,38,0.00,,,0.01,Rainwise IP-100,2013-08-27 15:44:00,
2013-08-27 08:49:00,88.6,59.0,27.28,ENE,67,4.9,7.0,37,0.00,,,0.01,Rainwise IP-100,2013-08-27 15:49:00,
2013-08-27 08:54:00,88.8,59.0,27.28,NE,45,3.5,8.0,37,0.00,,,0.01,Rainwise IP-100,2013-08-27 15:54:00,
2013-08-27 08:59:00,89.3,59.0,27.28,North,360,3.3,8.0,36,0.00,,,0.01,Rainwise IP-100,2013-08-27 15:59:00,
2013-08-27 09:04:00,89.7,59.0,27.28,NNE,22,1.2,7.0,36,0.00,,,0.01,Rainwise IP-100,2013-08-27 16:04:00,
2013-08-27 09:09:00,90.1,59.0,27.28,ENE,67,1.6,5.0,35,0.00,,,0.01,Rainwise IP-100,2013-08-27 16:09:00,
2013-08-27 09:14:00,90.5,59.0,27.29,NNE,22,4.0,9.0,35,0.00,,,0.01,Rainwise IP-100,2013-08-27 16:14:00,
2013-08-27 09:19:00,90.8,59.0,27.28,ENE,67,2.1,6.0,34,0.00,,,0.01,Rainwise IP-100,2013-08-27 16:19:00,
2013-08-27 09:24:00,91.1,59.0,27.28,WNW,292,4.0,12.0,34,0.00,,,0.01,Rainwise IP-100,2013-08-27 16:24:00,
2013-08-27 09:29:00,91.3,58.0,27.28,North,360,0.0,9.0,33,0.00,,,0.01,Rainwise IP-100,2013-08-27 16:29:00,
2013-08-27 09:34:00,91.7,59.0,27.28,NE,45,1.2,8.0,33,0.00,,,0.01,Rainwise IP-100,2013-08-27 16:34:00,
2013-08-27 09:39:00,92.1,59.0,27.28,NNE,22,2.6,7.0,33,0.00,,,0.01,Rainwise IP-100,2013-08-27 16:39:00,
2013-08-27 09:44:00,92.2,58.0,27.28,East,90,6.5,10.0,32,0.00,,,0.01,Rainwise IP-100,2013-08-27 16:44:00,
2013-08-27 09:49:00,92.3,58.0,27.28,NNE,22,2.8,10.0,32,0.00,,,0.01,Rainwise IP-100,2013-08-27 16:49:00,
2013-08-27 09:54:00,92.4,58.0,27.28,NNW,337,7.2,10.0,32,0.00,,,0.01,Rainwise IP-100,2013-08-27 16:54:00,
2013-08-27 09:59:00,92.5,58.0,27.28,ENE,67,2.1,10.0,32,0.00,,,0.01,Rainwise IP-100,2013-08-27 16:59:00,
2013-08-27 10:04:00,92.8,59.0,27.28,NNW,337,4.0,6.0,32,0.00,,,0.01,Rainwise IP-100,2013-08-27 17:04:00,
2013-08-27 10:09:00,93.3,58.0,27.28,ESE,112,2.6,6.0,31,0.00,,,0.01,Rainwise IP-100,2013-08-27 17:09:00,
2013-08-27 10:14:00,93.6,58.0,27.28,ENE,67,4.9,7.0,31,0.00,,,0.01,Rainwise IP-100,2013-08-27 17:14:00,
2013-08-27 10:19:00,93.8,59.0,27.28,WNW,292,2.8,9.0,31,0.00,,,0.01,Rainwise IP-100,2013-08-27 17:19:00,
2013-08-27 10:24:00,93.9,57.0,27.28,NNE,22,4.4,9.0,30,0.00,,,0.01,Rainwise IP-100,2013-08-27 17:24:00,
2013-08-27 10:29:00,94.0,57.0,27.28,NNE,22,3.7,8.0,30,0.00,,,0.01,Rainwise IP-100,2013-08-27 17:29:00,
2013-08-27 10:34:00,94.1,57.0,27.28,North,360,2.8,8.0,30,0.00,,,0.01,Rainwise IP-100,2013-08-27 17:34:00,
2013-08-27 10:39:00,93.9,57.0,27.28,ESE,112,0.0,6.0,30,0.00,,,0.01,Rainwise IP-100,2013-08-27 17:39:00,
2013-08-27 10:44:00,93.5,57.0,27.27,ENE,67,3.5,8.0,30,0.00,,,0.01,Rainwise IP-100,2013-08-27 17:44:00,
2013-08-27 10:49:00,92.9,57.0,27.27,ESE,112,1.9,7.0,31,0.00,,,0.01,Rainwise IP-100,2013-08-27 17:49:00,
2013-08-27 10:54:00,92.6,57.0,27.28,NNE,22,3.5,6.0,31,0.00,,,0.01,Rainwise IP-100,2013-08-27 17:54:00,
2013-08-27 10:59:00,93.2,58.0,27.28,NE,45,1.2,7.0,31,0.00,,,0.01,Rainwise IP-100,2013-08-27 17:59:00,
2013-08-27 11:04:00,93.3,58.0,27.28,North,360,1.6,6.0,31,0.00,,,0.01,Rainwise IP-100,2013-08-27 18:04:00,
2013-08-27 11:09:00,92.6,57.0,27.28,North,360,3.7,7.0,31,0.00,,,0.01,Rainwise IP-100,2013-08-27 18:09:00,
2013-08-27 11:14:00,92.7,57.0,27.28,NE,45,3.0,7.0,31,0.00,,,0.01,Rainwise IP-100,2013-08-27 18:14:00,
2013-08-27 11:19:00,92.6,57.0,27.29,NNE,22,2.3,6.0,31,0.00,,,0.01,Rainwise IP-100,2013-08-27 18:19:00,
2013-08-27 11:24:00,92.0,57.0,27.28,NNE,22,2.8,4.0,32,0.00,,,0.01,Rainwise IP-100,2013-08-27 18:24:00,
2013-08-27 11:29:00,91.7,59.0,27.28,ENE,67,3.5,4.0,33,0.00,,,0.01,Rainwise IP-100,2013-08-27 18:29:00,
2013-08-27 11:34:00,92.4,58.0,27.27,ESE,112,1.2,7.0,32,0.00,,,0.01,Rainwise IP-100,2013-08-27 18:34:00,
2013-08-27 11:39:00,93.5,59.0,27.27,NNW,337,0.0,6.0,32,0.00,,,0.01,Rainwise IP-100,2013-08-27 18:39:00,
2013-08-27 11:44:00,94.1,59.0,27.27,North,360,0.0,5.0,31,0.00,,,0.01,Rainwise IP-100,2013-08-27 18:44:00,
2013-08-27 11:49:00,93.9,59.0,27.27,NNE,22,1.4,9.0,31,0.00,,,0.01,Rainwise IP-100,2013-08-27 18:49:00,
2013-08-27 11:54:00,93.3,58.0,27.27,NNE,22,3.0,3.0,31,0.00,,,0.01,Rainwise IP-100,2013-08-27 18:54:00,
2013-08-27 11:59:00,93.1,57.0,27.27,NE,45,0.0,3.0,31,0.00,,,0.01,Rainwise IP-100,2013-08-27 18:59:00,
2013-08-27 12:04:00,92.9,57.0,27.26,ENE,67,0.0,1.0,31,0.00,,,0.01,Rainwise IP-100,2013-08-27 19:04:00,
2013-08-27 12:09:00,92.8,57.0,27.26,NNW,337,0.0,1.0,31,0.00,,,0.01,Rainwise IP-100,2013-08-27 19:09:00,
2013-08-27 12:14:00,92.7,57.0,27.26,ESE,112,0.0,2.0,30,0.00,,,0.01,Rainwise IP-100,2013-08-27 19:14:00,
2013-08-27 12:19:00,92.7,56.0,27.26,NE,45,0.0,1.0,29,0.00,,,0.01,Rainwise IP-100,2013-08-27 19:19:00,
2013-08-27 12:24:00,92.8,57.0,27.26,East,90,0.0,1.0,30,0.00,,,0.01,Rainwise IP-100,2013-08-27 19:24:00,
2013-08-27 12:29:00,92.8,57.0,27.26,NNE,22,0.0,5.0,30,0.00,,,0.01,Rainwise IP-100,2013-08-27 19:29:00,
2013-08-27 12:34:00,93.1,56.0,27.26,North,360,0.0,2.0,29,0.00,,,0.01,Rainwise IP-100,2013-08-27 19:34:00,
2013-08-27 12:39:00,93.1,56.0,27.26,ESE,112,1.9,8.0,29,0.00,,,0.01,Rainwise IP-100,2013-08-27 19:39:00,
2013-08-27 12:44:00,92.8,56.0,27.26,North,360,0.0,6.0,29,0.00,,,0.01,Rainwise IP-100,2013-08-27 19:44:00,
2013-08-27 12:49:00,92.8,56.0,27.26,ENE,67,1.9,3.0,29,0.00,,,0.01,Rainwise IP-100,2013-08-27 19:49:00,
2013-08-27 12:54:00,92.8,56.0,27.25,WSW,247,0.0,4.0,29,0.00,,,0.01,Rainwise IP-100,2013-08-27 19:54:00,
2013-08-27 12:59:00,92.9,56.0,27.25,ESE,112,0.0,4.0,29,0.00,,,0.01,Rainwise IP-100,2013-08-27 19:59:00,
2013-08-27 13:04:00,93.0,56.0,27.24,NNE,22,0.0,4.0,29,0.00,,,0.01,Rainwise IP-100,2013-08-27 20:04:00,
2013-08-27 13:09:00,93.0,56.0,27.24,East,90,1.4,4.0,29,0.00,,,0.01,Rainwise IP-100,2013-08-27 20:09:00,
2013-08-27 13:14:00,93.0,56.0,27.25,North,360,2.6,5.0,29,0.00,,,0.01,Rainwise IP-100,2013-08-27 20:14:00,
2013-08-27 13:19:00,92.9,56.0,27.24,ENE,67,1.2,4.0,29,0.00,,,0.01,Rainwise IP-100,2013-08-27 20:19:00,
2013-08-27 13:24:00,92.8,54.0,27.24,NE,45,0.0,5.0,28,0.00,,,0.01,Rainwise IP-100,2013-08-27 20:24:00,
2013-08-27 13:29:00,92.6,54.0,27.24,NNW,337,0.0,6.0,28,0.00,,,0.01,Rainwise IP-100,2013-08-27 20:29:00,
2013-08-27 13:34:00,92.6,54.0,27.24,NNE,22,1.4,5.0,28,0.00,,,0.01,Rainwise IP-100,2013-08-27 20:34:00,
2013-08-27 13:39:00,92.8,54.0,27.24,NNE,22,0.0,4.0,27,0.00,,,0.01,Rainwise IP-100,2013-08-27 20:39:00,
2013-08-27 13:44:00,92.9,54.0,27.24,NNE,22,2.3,7.0,27,0.00,,,0.01,Rainwise IP-100,2013-08-27 20:44:00,
2013-08-27 13:49:00,92.9,54.0,27.23,NNW,337,1.6,3.0,27,0.00,,,0.01,Rainwise IP-100,2013-08-27 20:49:00,
2013-08-27 13:54:00,92.8,54.0,27.23,ENE,67,0.0,5.0,27,0.00,,,0.01,Rainwise IP-100,2013-08-27 20:54:00,
2013-08-27 13:59:00,92.8,53.0,27.23,SE,135,3.5,4.0,26,0.00,,,0.01,Rainwise IP-100,2013-08-27 20:59:00,
2013-08-27 14:04:00,92.9,53.0,27.22,ESE,112,1.9,7.0,26,0.00,,,0.01,Rainwise IP-100,2013-08-27 21:04:00,
2013-08-27 14:09:00,92.9,53.0,27.22,ENE,67,0.0,5.0,26,0.00,,,0.01,Rainwise IP-100,2013-08-27 21:09:00,
2013-08-27 14:14:00,92.9,53.0,27.22,ENE,67,0.0,0.0,26,0.00,,,0.01,Rainwise IP-100,2013-08-27 21:14:00,
2013-08-27 14:23:00,93.9,53.0,27.21,ESE,112,4.0,0.0,25,0.00,,,0.01,Rainwise IP-100,2013-08-27 21:23:00,
2013-08-27 14:28:00,94.5,53.0,27.21,East,90,2.1,6.0,25,0.00,,,0.01,Rainwise IP-100,2013-08-27 21:28:00,
2013-08-27 14:33:00,96.4,54.0,27.21,ENE,67,3.7,3.7,24,0.00,,,0.01,Rainwise IP-100,2013-08-27 21:33:00,
2013-08-27 14:38:00,97.7,54.0,27.20,ENE,67,1.4,4.0,23,0.00,,,0.01,Rainwise IP-100,2013-08-27 21:38:00,
2013-08-27 14:43:00,98.2,53.0,27.21,SE,135,3.5,9.0,22,0.00,,,0.01,Rainwise IP-100,2013-08-27 21:43:00,
2013-08-27 14:48:00,98.4,53.0,27.21,ESE,112,6.8,6.8,22,0.00,,,0.01,Rainwise IP-100,2013-08-27 21:48:00,
2013-08-27 14:53:00,99.2,53.0,27.20,NNE,22,1.9,7.0,21,0.00,,,0.01,Rainwise IP-100,2013-08-27 21:53:00,
2013-08-27 14:58:00,99.9,53.0,27.20,ESE,112,3.3,8.0,21,0.00,,,0.01,Rainwise IP-100,2013-08-27 21:58:00,
2013-08-27 15:03:00,100.0,52.0,27.20,North,360,2.3,4.0,20,0.00,,,0.01,Rainwise IP-100,2013-08-27 22:03:00,
2013-08-27 15:08:00,100.3,50.0,27.20,NW,315,0.0,3.0,19,0.00,,,0.01,Rainwise IP-100,2013-08-27 22:08:00,
2013-08-27 15:13:00,100.8,50.0,27.20,East,90,0.0,7.0,19,0.00,,,0.01,Rainwise IP-100,2013-08-27 22:13:00,
2013-08-27 15:18:00,100.5,50.0,27.19,ESE,112,2.3,3.0,19,0.00,,,0.01,Rainwise IP-100,2013-08-27 22:18:00,
2013-08-27 15:23:00,100.3,50.0,27.19,ESE,112,2.1,4.0,19,0.00,,,0.01,Rainwise IP-100,2013-08-27 22:23:00,
2013-08-27 15:28:00,100.4,50.0,27.19,ENE,67,3.7,5.0,19,0.00,,,0.01,Rainwise IP-100,2013-08-27 22:28:00,
2013-08-27 15:33:00,100.1,50.0,27.19,ESE,112,4.7,7.0,19,0.00,,,0.01,Rainwise IP-100,2013-08-27 22:33:00,
2013-08-27 15:38:00,100.3,50.0,27.19,East,90,3.0,4.0,19,0.00,,,0.01,Rainwise IP-100,2013-08-27 22:38:00,
2013-08-27 15:43:00,100.3,50.0,27.18,SSE,157,5.8,9.0,19,0.00,,,0.01,Rainwise IP-100,2013-08-27 22:43:00,
2013-08-27 15:48:00,99.9,50.0,27.18,ESE,112,3.3,7.0,19,0.00,,,0.01,Rainwise IP-100,2013-08-27 22:48:00,
2013-08-27 15:53:00,100.1,52.0,27.18,SSW,202,0.0,6.0,20,0.00,,,0.01,Rainwise IP-100,2013-08-27 22:53:00,
2013-08-27 15:58:00,100.5,52.0,27.19,SSE,157,1.9,0.0,20,0.00,,,0.01,Rainwise IP-100,2013-08-27 22:58:00,
2013-08-27 16:03:00,100.6,52.0,27.18,SE,135,2.8,2.8,20,0.00,,,0.01,Rainwise IP-100,2013-08-27 23:03:00,
2013-08-27 16:08:00,100.6,52.0,27.18,East,90,2.3,2.3,20,0.00,,,0.01,Rainwise IP-100,2013-08-27 23:08:00,
2013-08-27 16:13:00,100.7,52.0,27.18,ESE,112,3.3,6.0,20,0.00,,,0.01,Rainwise IP-100,2013-08-27 23:13:00,
2013-08-27 16:18:00,100.3,52.0,27.18,ENE,67,5.6,6.0,20,0.00,,,0.01,Rainwise IP-100,2013-08-27 23:18:00,
2013-08-27 16:23:00,99.6,51.0,27.18,ENE,67,0.0,8.0,20,0.00,,,0.01,Rainwise IP-100,2013-08-27 23:23:00,
2013-08-27 16:28:00,98.8,50.0,27.18,ENE,67,2.1,7.0,20,0.00,,,0.01,Rainwise IP-100,2013-08-27 23:28:00,
2013-08-27 16:33:00,98.8,52.0,27.18,ESE,112,1.9,7.0,21,0.00,,,0.01,Rainwise IP-100,2013-08-27 23:33:00,
2013-08-27 16:38:00,98.7,50.0,27.18,ESE,112,2.3,6.0,20,0.00,,,0.01,Rainwise IP-100,2013-08-27 23:38:00,
2013-08-27 16:43:00,98.8,50.0,27.18,ENE,67,0.0,2.0,20,0.00,,,0.01,Rainwise IP-100,2013-08-27 23:43:00,
2013-08-27 16:48:00,99.1,51.0,27.17,ESE,112,0.0,3.0,20,0.00,,,0.01,Rainwise IP-100,2013-08-27 23:48:00,
2013-08-27 16:53:00,99.1,51.0,27.18,SE,135,4.2,7.0,20,0.00,,,0.01,Rainwise IP-100,2013-08-27 23:53:00,
2013-08-27 16:58:00,98.8,50.0,27.17,ENE,67,2.6,5.0,20,0.00,,,0.01,Rainwise IP-100,2013-08-27 23:58:00,
2013-08-27 17:03:00,98.8,50.0,27.18,ENE,67,0.0,2.0,20,0.00,,,0.01,Rainwise IP-100,2013-08-28 00:03:00,
2013-08-27 17:08:00,98.8,49.0,27.17,NNE,22,1.2,11.0,19,0.00,,,0.01,Rainwise IP-100,2013-08-28 00:08:00,
2013-08-27 17:13:00,98.4,49.0,27.17,ESE,112,7.9,10.0,19,0.00,,,0.01,Rainwise IP-100,2013-08-28 00:13:00,
2013-08-27 17:18:00,98.3,50.0,27.18,ENE,67,1.6,8.0,20,0.00,,,0.01,Rainwise IP-100,2013-08-28 00:18:00,
2013-08-27 17:23:00,98.1,50.0,27.18,NE,45,1.9,4.0,20,0.00,,,0.01,Rainwise IP-100,2013-08-28 00:23:00,
2013-08-27 17:28:00,98.2,50.0,27.18,ESE,112,9.8,9.8,20,0.00,,,0.01,Rainwise IP-100,2013-08-28 00:28:00,
2013-08-27 17:33:00,98.1,50.0,27.18,ESE,112,0.0,11.0,20,0.00,,,0.01,Rainwise IP-100,2013-08-28 00:33:00,
2013-08-27 17:38:00,98.0,50.0,27.18,ESE,112,3.7,7.0,20,0.00,,,0.01,Rainwise IP-100,2013-08-28 00:38:00,
2013-08-27 17:43:00,97.8,50.0,27.18,ESE,112,2.3,4.0,20,0.00,,,0.01,Rainwise IP-100,2013-08-28 00:43:00,
2013-08-27 17:48:00,97.4,50.0,27.18,SSE,157,3.7,5.0,20,0.00,,,0.01,Rainwise IP-100,2013-08-28 00:48:00,
2013-08-27 17:53:00,97.0,50.0,27.18,ENE,67,2.1,6.0,21,0.00,,,0.01,Rainwise IP-100,2013-08-28 00:53:00,
2013-08-27 17:58:00,96.7,50.0,27.18,NNE,22,0.0,8.0,21,0.00,,,0.01,Rainwise IP-100,2013-08-28 00:58:00,
2013-08-27 18:03:00,96.4,50.0,27.18,ENE,67,0.0,2.0,21,0.00,,,0.01,Rainwise IP-100,2013-08-28 01:03:00,
2013-08-27 18:08:00,96.2,50.0,27.17,ENE,67,3.3,4.0,21,0.00,,,0.01,Rainwise IP-100,2013-08-28 01:08:00,
2013-08-27 18:13:00,95.7,50.0,27.17,East,90,1.4,3.0,22,0.00,,,0.01,Rainwise IP-100,2013-08-28 01:13:00,
2013-08-27 18:18:00,95.4,50.0,27.17,ESE,112,0.0,4.0,22,0.00,,,0.01,Rainwise IP-100,2013-08-28 01:18:00,
2013-08-27 18:23:00,95.1,50.0,27.18,ESE,112,4.2,4.2,22,0.00,,,0.01,Rainwise IP-100,2013-08-28 01:23:00,
2013-08-27 18:28:00,94.4,50.0,27.18,ESE,112,0.0,4.0,23,0.00,,,0.01,Rainwise IP-100,2013-08-28 01:28:00,
2013-08-27 18:33:00,93.8,50.0,27.18,ESE,112,0.0,0.0,23,0.00,,,0.01,Rainwise IP-100,2013-08-28 01:33:00,
2013-08-27 18:38:00,93.4,51.0,27.18,ESE,112,1.2,1.2,24,0.00,,,0.01,Rainwise IP-100,2013-08-28 01:38:00,
2013-08-27 18:43:00,92.4,51.0,27.18,ESE,112,0.0,1.0,25,0.00,,,0.01,Rainwise IP-100,2013-08-28 01:43:00,
2013-08-27 18:48:00,92.4,51.0,27.18,ESE,112,0.0,0.0,25,0.00,,,0.01,Rainwise IP-100,2013-08-28 01:48:00,
2013-08-27 19:11:00,92.4,51.0,27.18,ESE,112,0.0,0.0,25,0.00,,,0.01,Rainwise IP-100,2013-08-28 02:11:00,
2013-08-27 19:16:00,86.9,53.0,27.18,ESE,112,0.0,0.0,31,0.00,,,0.01,Rainwise IP-100,2013-08-28 02:16:00,
2013-08-27 19:25:00,84.4,54.0,27.19,NE,45,0.0,0.0,36,0.00,,,0.01,Rainwise IP-100,2013-08-28 02:25:00,
2013-08-27 19:30:00,84.3,55.0,27.19,NE,45,0.0,0.0,37,0.00,,,0.01,Rainwise IP-100,2013-08-28 02:30:00,
2013-08-27 19:35:00,83.3,56.0,27.19,NE,45,0.0,0.0,39,0.00,,,0.01,Rainwise IP-100,2013-08-28 02:35:00,
2013-08-27 19:40:00,83.3,56.0,27.19,NE,45,0.0,0.0,39,0.00,,,0.01,Rainwise IP-100,2013-08-28 02:40:00,
2013-08-27 19:48:00,82.6,54.0,27.20,East,90,0.0,0.0,38,0.00,,,0.01,Rainwise IP-100,2013-08-28 02:48:00,
2013-08-27 19:53:00,83.0,54.0,27.21,East,90,0.0,0.0,37,0.00,,,0.01,Rainwise IP-100,2013-08-28 02:53:00,
2013-08-27 19:58:00,84.4,54.0,27.20,ENE,67,0.0,3.0,36,0.00,,,0.01,Rainwise IP-100,2013-08-28 02:58:00,
2013-08-27 20:03:00,86.4,54.0,27.21,ESE,112,1.4,2.0,33,0.00,,,0.01,Rainwise IP-100,2013-08-28 03:03:00,
2013-08-27 20:08:00,87.5,54.0,27.21,NNE,22,0.0,2.0,32,0.00,,,0.01,Rainwise IP-100,2013-08-28 03:08:00,
2013-08-27 20:13:00,88.0,54.0,27.21,ENE,67,0.0,5.0,32,0.00,,,0.01,Rainwise IP-100,2013-08-28 03:13:00,
2013-08-27 20:18:00,88.2,54.0,27.21,NE,45,0.0,1.0,32,0.00,,,0.01,Rainwise IP-100,2013-08-28 03:18:00,
2013-08-27 20:23:00,88.3,54.0,27.21,South,180,1.2,2.0,32,0.00,,,0.01,Rainwise IP-100,2013-08-28 03:23:00,
2013-08-27 20:28:00,88.3,56.0,27.22,ENE,67,1.2,1.2,33,0.00,,,0.01,Rainwise IP-100,2013-08-28 03:28:00,
2013-08-27 20:33:00,88.3,56.0,27.22,ESE,112,1.4,4.0,33,0.00,,,0.01,Rainwise IP-100,2013-08-28 03:33:00,
2013-08-27 20:38:00,88.5,56.0,27.22,ENE,67,1.4,3.0,33,0.00,,,0.01,Rainwise IP-100,2013-08-28 03:38:00,
2013-08-27 20:43:00,88.5,56.0,27.23,ENE,67,0.0,3.0,33,0.00,,,0.01,Rainwise IP-100,2013-08-28 03:43:00,
2013-08-27 20:48:00,88.6,56.0,27.23,NE,45,1.6,5.0,33,0.00,,,0.01,Rainwise IP-100,2013-08-28 03:48:00,
2013-08-27 20:53:00,88.8,56.0,27.22,NNW,337,0.0,4.0,33,0.00,,,0.01,Rainwise IP-100,2013-08-28 03:53:00,
2013-08-27 20:58:00,88.8,56.0,27.23,ENE,67,0.0,5.0,33,0.00,,,0.01,Rainwise IP-100,2013-08-28 03:58:00,
2013-08-27 21:01:00,88.8,56.0,27.23,ESE,112,4.4,5.0,33,0.00,,,0.01,Rainwise IP-100,2013-08-28 04:01:00,
2013-08-27 21:06:00,88.8,56.0,27.23,ESE,112,4.4,4.4,33,0.00,,,0.01,Rainwise IP-100,2013-08-28 04:06:00,
2013-08-27 21:19:00,88.8,56.0,27.24,NNW,337,1.9,0.0,33,0.00,,,0.01,Rainwise IP-100,2013-08-28 04:19:00,
2013-08-27 21:24:00,88.8,56.0,27.24,NNW,337,1.2,3.0,33,0.00,,,0.01,Rainwise IP-100,2013-08-28 04:24:00,
2013-08-27 21:29:00,88.8,56.0,27.24,NNW,337,1.2,1.2,33,0.00,,,0.01,Rainwise IP-100,2013-08-28 04:29:00,
2013-08-27 21:33:00,88.8,56.0,27.24,NNW,337,1.2,1.2,33,0.00,,,0.01,Rainwise IP-100,2013-08-28 04:33:00,
2013-08-27 21:38:00,88.3,56.0,27.24,NNW,337,1.2,4.0,34,0.00,,,0.01,Rainwise IP-100,2013-08-28 04:38:00,
2013-08-27 21:43:00,88.3,56.0,27.24,NNW,337,1.2,3.0,34,0.00,,,0.01,Rainwise IP-100,2013-08-28 04:43:00,
2013-08-27 21:48:00,87.9,56.0,27.23,NNE,22,3.3,3.3,34,0.00,,,0.01,Rainwise IP-100,2013-08-28 04:48:00,
2013-08-27 21:53:00,87.5,56.0,27.24,North,360,1.2,3.0,34,0.00,,,0.01,Rainwise IP-100,2013-08-28 04:53:00,
2013-08-27 21:58:00,87.1,55.0,27.23,North,360,1.4,3.0,34,0.00,,,0.01,Rainwise IP-100,2013-08-28 04:58:00,
2013-08-27 22:03:00,86.6,55.0,27.24,NNE,22,1.2,4.0,35,0.00,,,0.01,Rainwise IP-100,2013-08-28 05:03:00,
2013-08-27 22:08:00,86.4,55.0,27.23,NNW,337,0.0,4.0,35,0.00,,,0.01,Rainwise IP-100,2013-08-28 05:08:00,
2013-08-27 22:13:00,86.3,56.0,27.23,ENE,67,3.5,5.0,36,0.00,,,0.01,Rainwise IP-100,2013-08-28 05:13:00,
2013-08-27 22:18:00,86.4,56.0,27.24,SE,135,0.0,4.0,36,0.00,,,0.01,Rainwise IP-100,2013-08-28 05:18:00,
2013-08-27 22:23:00,86.5,56.0,27.24,ENE,67,0.0,2.0,36,0.00,,,0.01,Rainwise IP-100,2013-08-28 05:23:00,
2013-08-27 22:28:00,86.3,56.0,27.24,East,90,0.0,2.0,36,0.00,,,0.01,Rainwise IP-100,2013-08-28 05:28:00,
2013-08-27 22:33:00,86.3,56.0,27.24,East,90,0.0,1.0,36,0.00,,,0.01,Rainwise IP-100,2013-08-28 05:33:00,
2013-08-27 22:38:00,86.3,56.0,27.24,East,90,0.0,0.0,36,0.00,,,0.01,Rainwise IP-100,2013-08-28 05:38:00,
2013-08-27 23:15:00,83.1,57.0,27.24,ENE,67,0.0,0.0,41,0.00,,,0.01,Rainwise IP-100,2013-08-28 06:15:00,
2013-08-27 23:20:00,83.1,57.0,27.24,NNE,22,4.4,4.4,41,0.00,,,0.01,Rainwise IP-100,2013-08-28 06:20:00,